Year,Month,Day,Hour,Minute,Value (Times are PST for temperature in C)
2017,08,04,00,00,18.60
2017,08,04,00,01,18.60
2017,08,04,00,02,18.60
2017,08,04,00,03,18.60
2017,08,04,00,04,18.50
2017,08,04,00,05,18.50
2017,08,04,00,06,18.50
2017,08,04,00,07,18.50
2017,08,04,00,08,18.50
2017,08,04,00,09,18.40
2017,08,04,00,10,18.40
2017,08,04,00,11,18.40
2017,08,04,00,12,18.30
2017,08,04,00,13,18.20
2017,08,04,00,14,18.20
2017,08,04,00,15,18.10
2017,08,04,00,16,18.00
2017,08,04,00,17,18.00
2017,08,04,00,18,17.90
2017,08,04,00,19,17.90
2017,08,04,00,20,17.90
2017,08,04,00,21,17.90
2017,08,04,00,22,17.80
2017,08,04,00,23,17.80
2017,08,04,00,24,17.80
2017,08,04,00,25,17.70
2017,08,04,00,26,17.70
2017,08,04,00,27,17.70
2017,08,04,00,28,17.70
2017,08,04,00,29,17.70
2017,08,04,00,30,17.60
2017,08,04,00,31,17.60
2017,08,04,00,32,17.60
2017,08,04,00,33,17.60
2017,08,04,00,34,17.60
2017,08,04,00,35,17.60
2017,08,04,00,36,17.60
2017,08,04,00,37,17.60
2017,08,04,00,38,17.60
2017,08,04,00,39,17.60
2017,08,04,00,40,17.50
2017,08,04,00,41,17.50
2017,08,04,00,42,17.50
2017,08,04,00,43,17.40
2017,08,04,00,44,17.40
2017,08,04,00,45,17.40
2017,08,04,00,46,17.40
2017,08,04,00,47,17.30
2017,08,04,00,48,17.30
2017,08,04,00,49,17.30
2017,08,04,00,50,17.30
2017,08,04,00,51,17.30
2017,08,04,00,52,17.30
2017,08,04,00,53,17.20
2017,08,04,00,54,17.20
2017,08,04,00,55,17.20
2017,08,04,00,56,17.20
2017,08,04,00,57,17.20
2017,08,04,00,58,17.20
2017,08,04,00,59,17.20
2017,08,04,01,00,17.20
2017,08,04,01,01,17.20
2017,08,04,01,02,17.20
2017,08,04,01,03,17.20
2017,08,04,01,04,17.20
2017,08,04,01,05,17.20
2017,08,04,01,06,17.20
2017,08,04,01,07,17.30
2017,08,04,01,08,17.30
2017,08,04,01,09,17.30
2017,08,04,01,10,17.30
2017,08,04,01,11,17.20
2017,08,04,01,12,17.20
2017,08,04,01,13,17.20
2017,08,04,01,14,17.20
2017,08,04,01,15,17.20
2017,08,04,01,16,17.20
2017,08,04,01,17,17.20
2017,08,04,01,18,17.10
2017,08,04,01,19,17.10
2017,08,04,01,20,17.10
2017,08,04,01,21,17.00
2017,08,04,01,22,17.00
2017,08,04,01,23,17.00
2017,08,04,01,24,16.90
2017,08,04,01,25,16.90
2017,08,04,01,26,16.90
2017,08,04,01,27,16.90
2017,08,04,01,28,16.80
2017,08,04,01,29,16.80
2017,08,04,01,30,16.80
2017,08,04,01,31,16.70
2017,08,04,01,32,16.70
2017,08,04,01,33,16.70
2017,08,04,01,34,16.70
2017,08,04,01,35,16.70
2017,08,04,01,36,16.70
2017,08,04,01,37,16.60
2017,08,04,01,38,16.60
2017,08,04,01,39,16.60
2017,08,04,01,40,16.60
2017,08,04,01,41,16.60
2017,08,04,01,42,16.60
2017,08,04,01,43,16.60
2017,08,04,01,44,16.60
2017,08,04,01,45,16.60
2017,08,04,01,46,16.60
2017,08,04,01,47,16.60
2017,08,04,01,48,16.60
2017,08,04,01,49,16.60
2017,08,04,01,50,16.60
2017,08,04,01,51,16.60
2017,08,04,01,52,16.70
2017,08,04,01,53,16.70
2017,08,04,01,54,16.80
2017,08,04,01,55,16.80
2017,08,04,01,56,16.80
2017,08,04,01,57,16.80
2017,08,04,01,58,16.80
2017,08,04,01,59,16.80
2017,08,04,02,00,16.80
2017,08,04,02,01,16.80
2017,08,04,02,02,16.80
2017,08,04,02,03,16.80
2017,08,04,02,04,16.70
2017,08,04,02,05,16.70
2017,08,04,02,06,16.70
2017,08,04,02,07,16.70
2017,08,04,02,08,16.70
2017,08,04,02,09,16.70
2017,08,04,02,10,16.70
2017,08,04,02,11,16.60
2017,08,04,02,12,16.60
2017,08,04,02,13,16.60
2017,08,04,02,14,16.60
2017,08,04,02,15,16.60
2017,08,04,02,16,16.60
2017,08,04,02,17,16.50
2017,08,04,02,18,16.50
2017,08,04,02,19,16.50
2017,08,04,02,20,16.50
2017,08,04,02,21,16.50
2017,08,04,02,22,16.60
2017,08,04,02,23,16.60
2017,08,04,02,24,16.50
2017,08,04,02,25,16.50
2017,08,04,02,26,16.50
2017,08,04,02,27,16.50
2017,08,04,02,28,16.50
2017,08,04,02,29,16.40
2017,08,04,02,30,16.40
2017,08,04,02,31,16.40
2017,08,04,02,32,16.40
2017,08,04,02,33,16.40
2017,08,04,02,34,16.40
2017,08,04,02,35,16.40
2017,08,04,02,36,16.40
2017,08,04,02,37,16.40
2017,08,04,02,38,16.50
2017,08,04,02,39,16.50
2017,08,04,02,40,16.50
2017,08,04,02,41,16.50
2017,08,04,02,42,16.50
2017,08,04,02,43,16.50
2017,08,04,02,44,16.60
2017,08,04,02,45,16.60
2017,08,04,02,46,16.60
2017,08,04,02,47,16.60
2017,08,04,02,48,16.60
2017,08,04,02,49,16.60
2017,08,04,02,50,16.60
2017,08,04,02,51,16.60
2017,08,04,02,52,16.60
2017,08,04,02,53,16.60
2017,08,04,02,54,16.50
2017,08,04,02,55,16.50
2017,08,04,02,56,16.40
2017,08,04,02,57,16.40
2017,08,04,02,58,16.40
2017,08,04,02,59,16.40
2017,08,04,03,00,16.40
2017,08,04,03,01,16.40
2017,08,04,03,02,16.30
2017,08,04,03,03,16.30
2017,08,04,03,04,16.30
2017,08,04,03,05,16.30
2017,08,04,03,06,16.30
2017,08,04,03,07,16.20
2017,08,04,03,08,16.20
2017,08,04,03,09,16.10
2017,08,04,03,10,16.10
2017,08,04,03,11,16.10
2017,08,04,03,12,16.10
2017,08,04,03,13,16.10
2017,08,04,03,14,16.10
2017,08,04,03,15,16.10
2017,08,04,03,16,16.20
2017,08,04,03,17,16.20
2017,08,04,03,18,16.20
2017,08,04,03,19,16.10
2017,08,04,03,20,16.10
2017,08,04,03,21,16.10
2017,08,04,03,22,16.10
2017,08,04,03,23,16.10
2017,08,04,03,24,16.10
2017,08,04,03,25,16.10
2017,08,04,03,26,16.20
2017,08,04,03,27,16.20
2017,08,04,03,28,16.20
2017,08,04,03,29,16.20
2017,08,04,03,30,16.20
2017,08,04,03,31,16.20
2017,08,04,03,32,16.20
2017,08,04,03,33,16.20
2017,08,04,03,34,16.10
2017,08,04,03,35,16.10
2017,08,04,03,36,16.10
2017,08,04,03,37,16.00
2017,08,04,03,38,16.00
2017,08,04,03,39,16.00
2017,08,04,03,40,16.10
2017,08,04,03,41,16.10
2017,08,04,03,42,16.10
2017,08,04,03,43,16.10
2017,08,04,03,44,16.00
2017,08,04,03,45,16.00
2017,08,04,03,46,16.00
2017,08,04,03,47,16.00
2017,08,04,03,48,15.90
2017,08,04,03,49,15.90
2017,08,04,03,50,15.90
2017,08,04,03,51,15.80
2017,08,04,03,52,15.80
2017,08,04,03,53,15.80
2017,08,04,03,54,15.80
2017,08,04,03,55,15.80
2017,08,04,03,56,15.70
2017,08,04,03,57,15.70
2017,08,04,03,58,15.70
2017,08,04,03,59,15.70
2017,08,04,04,00,15.70
2017,08,04,04,01,15.70
2017,08,04,04,02,15.70
2017,08,04,04,03,15.70
2017,08,04,04,04,15.70
2017,08,04,04,05,15.70
2017,08,04,04,06,15.70
2017,08,04,04,07,15.70
2017,08,04,04,08,15.70
2017,08,04,04,09,15.60
2017,08,04,04,10,15.60
2017,08,04,04,11,15.60
2017,08,04,04,12,15.70
2017,08,04,04,13,15.60
2017,08,04,04,14,15.60
2017,08,04,04,15,15.60
2017,08,04,04,16,15.60
2017,08,04,04,17,15.70
2017,08,04,04,18,15.70
2017,08,04,04,19,15.70
2017,08,04,04,20,15.70
2017,08,04,04,21,15.70
2017,08,04,04,22,15.70
2017,08,04,04,23,15.70
2017,08,04,04,24,15.70
2017,08,04,04,25,15.70
2017,08,04,04,26,15.70
2017,08,04,04,27,15.70
2017,08,04,04,28,15.80
2017,08,04,04,29,15.80
2017,08,04,04,30,15.90
2017,08,04,04,31,15.90
2017,08,04,04,32,16.00
2017,08,04,04,33,16.00
2017,08,04,04,34,16.10
2017,08,04,04,35,16.10
2017,08,04,04,36,16.10
2017,08,04,04,37,16.20
2017,08,04,04,38,16.20
2017,08,04,04,39,16.20
2017,08,04,04,40,16.30
2017,08,04,04,41,16.30
2017,08,04,04,42,16.30
2017,08,04,04,43,16.30
2017,08,04,04,44,16.30
2017,08,04,04,45,16.20
2017,08,04,04,46,16.20
2017,08,04,04,47,16.20
2017,08,04,04,48,16.20
2017,08,04,04,49,16.20
2017,08,04,04,50,16.10
2017,08,04,04,51,16.10
2017,08,04,04,52,16.00
2017,08,04,04,53,16.00
2017,08,04,04,54,15.90
2017,08,04,04,55,15.90
2017,08,04,04,56,15.80
2017,08,04,04,57,15.80
2017,08,04,04,58,15.80
2017,08,04,04,59,15.70
2017,08,04,05,00,15.70
2017,08,04,05,01,15.70
2017,08,04,05,02,15.60
2017,08,04,05,03,15.60
2017,08,04,05,04,15.60
2017,08,04,05,05,15.50
2017,08,04,05,06,15.50
2017,08,04,05,07,15.40
2017,08,04,05,08,15.40
2017,08,04,05,09,15.40
2017,08,04,05,10,15.40
2017,08,04,05,11,15.30
2017,08,04,05,12,15.30
2017,08,04,05,13,15.30
2017,08,04,05,14,15.30
2017,08,04,05,15,15.30
2017,08,04,05,16,15.30
2017,08,04,05,17,15.30
2017,08,04,05,18,15.30
2017,08,04,05,19,15.30
2017,08,04,05,20,15.30
2017,08,04,05,21,15.20
2017,08,04,05,22,15.20
2017,08,04,05,23,15.20
2017,08,04,05,24,15.20
2017,08,04,05,25,15.20
2017,08,04,05,26,15.10
2017,08,04,05,27,15.10
2017,08,04,05,28,15.10
2017,08,04,05,29,15.10
2017,08,04,05,30,15.10
2017,08,04,05,31,15.10
2017,08,04,05,32,15.10
2017,08,04,05,33,15.10
2017,08,04,05,34,15.10
2017,08,04,05,35,15.10
2017,08,04,05,36,15.10
2017,08,04,05,37,15.10
2017,08,04,05,38,15.00
2017,08,04,05,39,15.00
2017,08,04,05,40,15.00
2017,08,04,05,41,15.00
2017,08,04,05,42,15.00
2017,08,04,05,43,14.90
2017,08,04,05,44,14.90
2017,08,04,05,45,14.90
2017,08,04,05,46,14.80
2017,08,04,05,47,14.80
2017,08,04,05,48,14.80
2017,08,04,05,49,14.80
2017,08,04,05,50,14.80
2017,08,04,05,51,14.70
2017,08,04,05,52,14.70
2017,08,04,05,53,14.70
2017,08,04,05,54,14.70
2017,08,04,05,55,14.70
2017,08,04,05,56,14.70
2017,08,04,05,57,14.70
2017,08,04,05,58,14.70
2017,08,04,05,59,14.70
2017,08,04,06,00,14.70
2017,08,04,06,01,14.70
2017,08,04,06,02,14.70
2017,08,04,06,03,14.80
2017,08,04,06,04,14.80
2017,08,04,06,05,14.80
2017,08,04,06,06,14.80
2017,08,04,06,07,14.90
2017,08,04,06,08,14.90
2017,08,04,06,09,14.90
2017,08,04,06,10,14.90
2017,08,04,06,11,14.90
2017,08,04,06,12,14.80
2017,08,04,06,13,14.80
2017,08,04,06,14,14.80
2017,08,04,06,15,14.80
2017,08,04,06,16,14.80
2017,08,04,06,17,14.80
2017,08,04,06,18,14.80
2017,08,04,06,19,14.90
2017,08,04,06,20,14.90
2017,08,04,06,21,14.90
2017,08,04,06,22,14.90
2017,08,04,06,23,14.90
2017,08,04,06,24,14.90
2017,08,04,06,25,14.90
2017,08,04,06,26,14.90
2017,08,04,06,27,15.00
2017,08,04,06,28,14.90
2017,08,04,06,29,14.90
2017,08,04,06,30,14.90
2017,08,04,06,31,14.90
2017,08,04,06,32,14.90
2017,08,04,06,33,14.90
2017,08,04,06,34,14.90
2017,08,04,06,35,14.80
2017,08,04,06,36,14.80
2017,08,04,06,37,14.80
2017,08,04,06,38,14.80
2017,08,04,06,39,14.80
2017,08,04,06,40,14.80
2017,08,04,06,41,14.80
2017,08,04,06,42,14.80
2017,08,04,06,43,14.80
2017,08,04,06,44,14.80
2017,08,04,06,45,14.80
2017,08,04,06,46,14.80
2017,08,04,06,47,14.80
2017,08,04,06,48,14.80
2017,08,04,06,49,14.80
2017,08,04,06,50,14.80
2017,08,04,06,51,14.90
2017,08,04,06,52,14.90
2017,08,04,06,53,14.90
2017,08,04,06,54,14.90
2017,08,04,06,55,14.90
2017,08,04,06,56,14.90
2017,08,04,06,57,14.90
2017,08,04,06,58,14.90
2017,08,04,06,59,15.00
2017,08,04,07,00,15.00
2017,08,04,07,01,15.00
2017,08,04,07,02,15.00
2017,08,04,07,03,15.00
2017,08,04,07,04,15.00
2017,08,04,07,05,15.00
2017,08,04,07,06,15.00
2017,08,04,07,07,15.10
2017,08,04,07,08,15.10
2017,08,04,07,09,15.10
2017,08,04,07,10,15.10
2017,08,04,07,11,15.10
2017,08,04,07,12,15.20
2017,08,04,07,13,15.20
2017,08,04,07,14,15.30
2017,08,04,07,15,15.30
2017,08,04,07,16,15.30
2017,08,04,07,17,15.40
2017,08,04,07,18,15.40
2017,08,04,07,19,15.50
2017,08,04,07,20,15.60
2017,08,04,07,21,15.60
2017,08,04,07,22,15.70
2017,08,04,07,23,15.70
2017,08,04,07,24,15.80
2017,08,04,07,25,15.90
2017,08,04,07,26,15.90
2017,08,04,07,27,16.00
2017,08,04,07,28,16.10
2017,08,04,07,29,16.10
2017,08,04,07,30,16.20
2017,08,04,07,31,16.20
2017,08,04,07,32,16.30
2017,08,04,07,33,16.30
2017,08,04,07,34,16.40
2017,08,04,07,35,16.50
2017,08,04,07,36,16.50
2017,08,04,07,37,16.60
2017,08,04,07,38,16.60
2017,08,04,07,39,16.70
2017,08,04,07,40,16.70
2017,08,04,07,41,16.80
2017,08,04,07,42,16.80
2017,08,04,07,43,16.90
2017,08,04,07,44,17.00
2017,08,04,07,45,17.10
2017,08,04,07,46,17.20
2017,08,04,07,47,17.20
2017,08,04,07,48,17.30
2017,08,04,07,49,17.40
2017,08,04,07,50,17.50
2017,08,04,07,51,17.60
2017,08,04,07,52,17.70
2017,08,04,07,53,17.80
2017,08,04,07,54,17.90
2017,08,04,07,55,17.90
2017,08,04,07,56,18.00
2017,08,04,07,57,18.00
2017,08,04,07,58,18.10
2017,08,04,07,59,18.10
2017,08,04,08,00,18.20
2017,08,04,08,01,18.20
2017,08,04,08,02,18.30
2017,08,04,08,03,18.30
2017,08,04,08,04,18.40
2017,08,04,08,05,18.50
2017,08,04,08,06,18.50
2017,08,04,08,07,18.60
2017,08,04,08,08,18.60
2017,08,04,08,09,18.70
2017,08,04,08,10,18.70
2017,08,04,08,11,18.70
2017,08,04,08,12,18.80
2017,08,04,08,13,18.80
2017,08,04,08,14,18.80
2017,08,04,08,15,18.80
2017,08,04,08,16,18.80
2017,08,04,08,17,18.90
2017,08,04,08,18,18.90
2017,08,04,08,19,18.90
2017,08,04,08,20,18.90
2017,08,04,08,21,18.90
2017,08,04,08,22,18.90
2017,08,04,08,23,19.00
2017,08,04,08,24,19.00
2017,08,04,08,25,19.00
2017,08,04,08,26,19.10
2017,08,04,08,27,19.10
2017,08,04,08,28,19.10
2017,08,04,08,29,19.10
2017,08,04,08,30,19.10
2017,08,04,08,31,19.20
2017,08,04,08,32,19.20
2017,08,04,08,33,19.20
2017,08,04,08,34,19.20
2017,08,04,08,35,19.30
2017,08,04,08,36,19.30
2017,08,04,08,37,19.30
2017,08,04,08,38,19.30
2017,08,04,08,39,19.30
2017,08,04,08,40,19.40
2017,08,04,08,41,19.40
2017,08,04,08,42,19.50
2017,08,04,08,43,19.50
2017,08,04,08,44,19.60
2017,08,04,08,45,19.70
2017,08,04,08,46,19.70
2017,08,04,08,47,19.80
2017,08,04,08,48,19.90
2017,08,04,08,49,19.90
2017,08,04,08,50,20.00
2017,08,04,08,51,20.10
2017,08,04,08,52,20.10
2017,08,04,08,53,20.10
2017,08,04,08,54,20.10
2017,08,04,08,55,20.10
2017,08,04,08,56,20.20
2017,08,04,08,57,20.20
2017,08,04,08,58,20.20
2017,08,04,08,59,20.20
2017,08,04,09,00,20.20
2017,08,04,09,01,20.20
2017,08,04,09,02,20.20
2017,08,04,09,03,20.20
2017,08,04,09,04,20.20
2017,08,04,09,05,20.20
2017,08,04,09,06,20.20
2017,08,04,09,07,20.10
2017,08,04,09,08,20.10
2017,08,04,09,09,20.10
2017,08,04,09,10,20.10
2017,08,04,09,11,20.10
2017,08,04,09,12,20.10
2017,08,04,09,13,20.10
2017,08,04,09,14,20.10
2017,08,04,09,15,20.10
2017,08,04,09,16,20.10
2017,08,04,09,17,20.10
2017,08,04,09,18,20.10
2017,08,04,09,19,20.10
2017,08,04,09,20,20.10
2017,08,04,09,21,20.20
2017,08,04,09,22,20.30
2017,08,04,09,23,20.40
2017,08,04,09,24,20.40
2017,08,04,09,25,20.50
2017,08,04,09,26,20.60
2017,08,04,09,27,20.70
2017,08,04,09,28,20.70
2017,08,04,09,29,20.80
2017,08,04,09,30,20.80
2017,08,04,09,31,20.90
2017,08,04,09,32,20.90
2017,08,04,09,33,21.00
2017,08,04,09,34,21.10
2017,08,04,09,35,21.10
2017,08,04,09,36,21.20
2017,08,04,09,37,21.30
2017,08,04,09,38,21.40
2017,08,04,09,39,21.50
2017,08,04,09,40,21.50
2017,08,04,09,41,21.60
2017,08,04,09,42,21.70
2017,08,04,09,43,21.80
2017,08,04,09,44,21.90
2017,08,04,09,45,22.00
2017,08,04,09,46,22.00
2017,08,04,09,47,22.10
2017,08,04,09,48,22.10
2017,08,04,09,49,22.20
2017,08,04,09,50,22.10
2017,08,04,09,51,22.00
2017,08,04,09,52,21.80
2017,08,04,09,53,21.60
2017,08,04,09,54,21.40
2017,08,04,09,55,21.40
2017,08,04,09,56,21.30
2017,08,04,09,57,21.20
2017,08,04,09,58,21.20
2017,08,04,09,59,21.10
2017,08,04,10,00,21.10
2017,08,04,10,01,21.00
2017,08,04,10,02,21.00
2017,08,04,10,03,20.90
2017,08,04,10,04,20.80
2017,08,04,10,05,20.80
2017,08,04,10,06,20.90
2017,08,04,10,07,20.90
2017,08,04,10,08,20.90
2017,08,04,10,09,20.90
2017,08,04,10,10,21.00
2017,08,04,10,11,21.00
2017,08,04,10,12,21.00
2017,08,04,10,13,21.10
2017,08,04,10,14,21.10
2017,08,04,10,15,21.10
2017,08,04,10,16,21.20
2017,08,04,10,17,21.30
2017,08,04,10,18,21.40
2017,08,04,10,19,21.50
2017,08,04,10,20,21.60
2017,08,04,10,21,21.60
2017,08,04,10,22,21.70
2017,08,04,10,23,21.70
2017,08,04,10,24,21.70
2017,08,04,10,25,21.70
2017,08,04,10,26,21.70
2017,08,04,10,27,21.70
2017,08,04,10,28,21.70
2017,08,04,10,29,21.80
2017,08,04,10,30,21.90
2017,08,04,10,31,22.00
2017,08,04,10,32,22.10
2017,08,04,10,33,22.20
2017,08,04,10,34,22.40
2017,08,04,10,35,22.50
2017,08,04,10,36,22.60
2017,08,04,10,37,22.70
2017,08,04,10,38,22.80
2017,08,04,10,39,22.90
2017,08,04,10,40,23.00
2017,08,04,10,41,23.10
2017,08,04,10,42,23.20
2017,08,04,10,43,23.20
2017,08,04,10,44,23.30
2017,08,04,10,45,23.40
2017,08,04,10,46,23.50
2017,08,04,10,47,23.50
2017,08,04,10,48,23.60
2017,08,04,10,49,23.70
2017,08,04,10,50,23.70
2017,08,04,10,51,23.80
2017,08,04,10,52,23.90
2017,08,04,10,53,24.00
2017,08,04,10,54,24.10
2017,08,04,10,55,24.10
2017,08,04,10,56,24.10
2017,08,04,10,57,24.10
2017,08,04,10,58,24.20
2017,08,04,10,59,24.30
2017,08,04,11,00,24.30
2017,08,04,11,01,24.40
2017,08,04,11,02,24.50
2017,08,04,11,03,24.60
2017,08,04,11,04,24.60
2017,08,04,11,05,24.60
2017,08,04,11,06,24.60
2017,08,04,11,07,24.60
2017,08,04,11,08,24.50
2017,08,04,11,09,24.60
2017,08,04,11,10,24.60
2017,08,04,11,11,24.60
2017,08,04,11,12,24.60
2017,08,04,11,13,24.60
2017,08,04,11,14,24.70
2017,08,04,11,15,24.70
2017,08,04,11,16,24.80
2017,08,04,11,17,24.80
2017,08,04,11,18,24.80
2017,08,04,11,19,24.90
2017,08,04,11,20,24.90
2017,08,04,11,21,24.90
2017,08,04,11,22,25.00
2017,08,04,11,23,25.10
2017,08,04,11,24,25.10
2017,08,04,11,25,25.10
2017,08,04,11,26,25.10
2017,08,04,11,27,25.00
2017,08,04,11,28,25.00
2017,08,04,11,29,25.00
2017,08,04,11,30,25.00
2017,08,04,11,31,25.00
2017,08,04,11,32,25.00
2017,08,04,11,33,25.00
2017,08,04,11,34,25.00
2017,08,04,11,35,25.00
2017,08,04,11,36,25.10
2017,08,04,11,37,25.10
2017,08,04,11,38,25.20
2017,08,04,11,39,25.30
2017,08,04,11,40,25.40
2017,08,04,11,41,25.50
2017,08,04,11,42,25.60
2017,08,04,11,43,25.70
2017,08,04,11,44,25.80
2017,08,04,11,45,25.90
2017,08,04,11,46,25.90
2017,08,04,11,47,26.00
2017,08,04,11,48,26.00
2017,08,04,11,49,25.90
2017,08,04,11,50,25.70
2017,08,04,11,51,25.60
2017,08,04,11,52,25.50
2017,08,04,11,53,25.40
2017,08,04,11,54,25.30
2017,08,04,11,55,25.30
2017,08,04,11,56,25.30
2017,08,04,11,57,25.30
2017,08,04,11,58,25.30
2017,08,04,11,59,25.30
2017,08,04,12,00,25.30
2017,08,04,12,01,25.30
2017,08,04,12,02,25.40
2017,08,04,12,03,25.50
2017,08,04,12,04,25.50
2017,08,04,12,05,25.60
2017,08,04,12,06,25.80
2017,08,04,12,07,25.80
2017,08,04,12,08,25.90
2017,08,04,12,09,26.00
2017,08,04,12,10,26.10
2017,08,04,12,11,26.20
2017,08,04,12,12,26.20
2017,08,04,12,13,26.30
2017,08,04,12,14,26.30
2017,08,04,12,15,26.20
2017,08,04,12,16,26.20
2017,08,04,12,17,26.30
2017,08,04,12,18,26.30
2017,08,04,12,19,26.30
2017,08,04,12,20,26.40
2017,08,04,12,21,26.40
2017,08,04,12,22,26.40
2017,08,04,12,23,26.40
2017,08,04,12,24,26.40
2017,08,04,12,25,26.50
2017,08,04,12,26,26.50
2017,08,04,12,27,26.50
2017,08,04,12,28,26.50
2017,08,04,12,29,26.50
2017,08,04,12,30,26.50
2017,08,04,12,31,26.60
2017,08,04,12,32,26.60
2017,08,04,12,33,26.70
2017,08,04,12,34,26.80
2017,08,04,12,35,26.80
2017,08,04,12,36,26.80
2017,08,04,12,37,26.70
2017,08,04,12,38,26.70
2017,08,04,12,39,26.80
2017,08,04,12,40,26.90
2017,08,04,12,41,26.90
2017,08,04,12,42,27.00
2017,08,04,12,43,27.10
2017,08,04,12,44,27.20
2017,08,04,12,45,27.20
2017,08,04,12,46,27.30
2017,08,04,12,47,27.40
2017,08,04,12,48,27.40
2017,08,04,12,49,27.40
2017,08,04,12,50,27.40
2017,08,04,12,51,27.30
2017,08,04,12,52,27.20
2017,08,04,12,53,26.90
2017,08,04,12,54,26.60
2017,08,04,12,55,26.40
2017,08,04,12,56,26.30
2017,08,04,12,57,26.20
2017,08,04,12,58,26.20
2017,08,04,12,59,26.20
2017,08,04,13,00,26.20
2017,08,04,13,01,26.20
2017,08,04,13,02,26.30
2017,08,04,13,03,26.30
2017,08,04,13,04,26.40
2017,08,04,13,05,26.40
2017,08,04,13,06,26.30
2017,08,04,13,07,26.30
2017,08,04,13,08,26.20
2017,08,04,13,09,26.20
2017,08,04,13,10,26.20
2017,08,04,13,11,26.20
2017,08,04,13,12,26.20
2017,08,04,13,13,26.30
2017,08,04,13,14,26.30
2017,08,04,13,15,26.30
2017,08,04,13,16,26.40
2017,08,04,13,17,26.40
2017,08,04,13,18,26.50
2017,08,04,13,19,26.50
2017,08,04,13,20,26.50
2017,08,04,13,21,26.50
2017,08,04,13,22,26.50
2017,08,04,13,23,26.50
2017,08,04,13,24,26.60
2017,08,04,13,25,26.60
2017,08,04,13,26,26.60
2017,08,04,13,27,26.70
2017,08,04,13,28,26.80
2017,08,04,13,29,26.80
2017,08,04,13,30,26.90
2017,08,04,13,31,26.90
2017,08,04,13,32,26.90
2017,08,04,13,33,26.90
2017,08,04,13,34,26.90
2017,08,04,13,35,26.80
2017,08,04,13,36,26.80
2017,08,04,13,37,26.70
2017,08,04,13,38,26.70
2017,08,04,13,39,26.70
2017,08,04,13,40,26.70
2017,08,04,13,41,26.70
2017,08,04,13,42,26.70
2017,08,04,13,43,26.80
2017,08,04,13,44,26.80
2017,08,04,13,45,26.90
2017,08,04,13,46,26.90
2017,08,04,13,47,26.90
2017,08,04,13,48,26.90
2017,08,04,13,49,27.00
2017,08,04,13,50,27.00
2017,08,04,13,51,27.00
2017,08,04,13,52,26.90
2017,08,04,13,53,26.90
2017,08,04,13,54,26.90
2017,08,04,13,55,26.90
2017,08,04,13,56,26.90
2017,08,04,13,57,26.90
2017,08,04,13,58,26.90
2017,08,04,13,59,27.00
2017,08,04,14,00,27.00
2017,08,04,14,01,27.10
2017,08,04,14,02,27.10
2017,08,04,14,03,27.10
2017,08,04,14,04,27.10
2017,08,04,14,05,27.10
2017,08,04,14,06,27.10
2017,08,04,14,07,27.10
2017,08,04,14,08,27.10
2017,08,04,14,09,27.10
2017,08,04,14,10,27.20
2017,08,04,14,11,27.20
2017,08,04,14,12,27.30
2017,08,04,14,13,27.30
2017,08,04,14,14,27.30
2017,08,04,14,15,27.40
2017,08,04,14,16,27.40
2017,08,04,14,17,27.50
2017,08,04,14,18,27.50
2017,08,04,14,19,27.50
2017,08,04,14,20,27.50
2017,08,04,14,21,27.60
2017,08,04,14,22,27.60
2017,08,04,14,23,27.60
2017,08,04,14,24,27.60
2017,08,04,14,25,27.70
2017,08,04,14,26,27.70
2017,08,04,14,27,27.70
2017,08,04,14,28,27.70
2017,08,04,14,29,27.60
2017,08,04,14,30,27.50
2017,08,04,14,31,27.50
2017,08,04,14,32,27.40
2017,08,04,14,33,27.40
2017,08,04,14,34,27.40
2017,08,04,14,35,27.40
2017,08,04,14,36,27.40
2017,08,04,14,37,27.40
2017,08,04,14,38,27.30
2017,08,04,14,39,27.30
2017,08,04,14,40,27.30
2017,08,04,14,41,27.20
2017,08,04,14,42,27.20
2017,08,04,14,43,27.20
2017,08,04,14,44,27.30
2017,08,04,14,45,27.30
2017,08,04,14,46,27.30
2017,08,04,14,47,27.40
2017,08,04,14,48,27.40
2017,08,04,14,49,27.40
2017,08,04,14,50,27.40
2017,08,04,14,51,27.30
2017,08,04,14,52,27.10
2017,08,04,14,53,26.90
2017,08,04,14,54,26.80
2017,08,04,14,55,26.80
2017,08,04,14,56,26.70
2017,08,04,14,57,26.60
2017,08,04,14,58,26.60
2017,08,04,14,59,26.60
2017,08,04,15,00,26.60
2017,08,04,15,01,26.60
2017,08,04,15,02,26.60
2017,08,04,15,03,26.60
2017,08,04,15,04,26.60
2017,08,04,15,05,26.60
2017,08,04,15,06,26.50
2017,08,04,15,07,26.50
2017,08,04,15,08,26.40
2017,08,04,15,09,26.30
2017,08,04,15,10,26.30
2017,08,04,15,11,26.30
2017,08,04,15,12,26.30
2017,08,04,15,13,26.40
2017,08,04,15,14,26.40
2017,08,04,15,15,26.40
2017,08,04,15,16,26.40
2017,08,04,15,17,26.40
2017,08,04,15,18,26.50
2017,08,04,15,19,26.50
2017,08,04,15,20,26.60
2017,08,04,15,21,26.60
2017,08,04,15,22,26.60
2017,08,04,15,23,26.60
2017,08,04,15,24,26.60
2017,08,04,15,25,26.60
2017,08,04,15,26,26.70
2017,08,04,15,27,26.70
2017,08,04,15,28,26.70
2017,08,04,15,29,26.70
2017,08,04,15,30,26.60
2017,08,04,15,31,26.60
2017,08,04,15,32,26.60
2017,08,04,15,33,26.60
2017,08,04,15,34,26.60
2017,08,04,15,35,26.70
2017,08,04,15,36,26.70
2017,08,04,15,37,26.70
2017,08,04,15,38,26.60
2017,08,04,15,39,26.60
2017,08,04,15,40,26.60
2017,08,04,15,41,26.50
2017,08,04,15,42,26.50
2017,08,04,15,43,26.50
2017,08,04,15,44,26.60
2017,08,04,15,45,26.60
2017,08,04,15,46,26.70
2017,08,04,15,47,26.70
2017,08,04,15,48,26.70
2017,08,04,15,49,26.80
2017,08,04,15,50,26.80
2017,08,04,15,51,26.80
2017,08,04,15,52,26.80
2017,08,04,15,53,26.80
2017,08,04,15,54,26.70
2017,08,04,15,55,26.70
2017,08,04,15,56,26.70
2017,08,04,15,57,26.70
2017,08,04,15,58,26.80
2017,08,04,15,59,26.80
2017,08,04,16,00,26.80
2017,08,04,16,01,26.80
2017,08,04,16,02,26.80
2017,08,04,16,03,26.80
2017,08,04,16,04,26.80
2017,08,04,16,05,26.90
2017,08,04,16,06,26.90
2017,08,04,16,07,26.90
2017,08,04,16,08,26.90
2017,08,04,16,09,27.00
2017,08,04,16,10,26.90
2017,08,04,16,11,27.00
2017,08,04,16,12,27.00
2017,08,04,16,13,27.00
2017,08,04,16,14,27.00
2017,08,04,16,15,27.00
2017,08,04,16,16,27.00
2017,08,04,16,17,27.00
2017,08,04,16,18,27.00
2017,08,04,16,19,27.10
2017,08,04,16,20,27.10
2017,08,04,16,21,27.20
2017,08,04,16,22,27.20
2017,08,04,16,23,27.30
2017,08,04,16,24,27.30
2017,08,04,16,25,27.30
2017,08,04,16,26,27.30
2017,08,04,16,27,27.30
2017,08,04,16,28,27.30
2017,08,04,16,29,27.20
2017,08,04,16,30,27.20
2017,08,04,16,31,27.20
2017,08,04,16,32,27.20
2017,08,04,16,33,27.20
2017,08,04,16,34,27.20
2017,08,04,16,35,27.20
2017,08,04,16,36,27.20
2017,08,04,16,37,27.30
2017,08,04,16,38,27.30
2017,08,04,16,39,27.30
2017,08,04,16,40,27.40
2017,08,04,16,41,27.40
2017,08,04,16,42,27.50
2017,08,04,16,43,27.50
2017,08,04,16,44,27.60
2017,08,04,16,45,27.70
2017,08,04,16,46,27.70
2017,08,04,16,47,27.70
2017,08,04,16,48,27.70
2017,08,04,16,49,27.70
2017,08,04,16,50,27.70
2017,08,04,16,51,27.70
2017,08,04,16,52,27.70
2017,08,04,16,53,27.70
2017,08,04,16,54,27.70
2017,08,04,16,55,27.70
2017,08,04,16,56,27.70
2017,08,04,16,57,27.60
2017,08,04,16,58,27.60
2017,08,04,16,59,27.50
2017,08,04,17,00,27.50
2017,08,04,17,01,27.50
2017,08,04,17,02,27.50
2017,08,04,17,03,27.50
2017,08,04,17,04,27.50
2017,08,04,17,05,27.50
2017,08,04,17,06,27.50
2017,08,04,17,07,27.50
2017,08,04,17,08,27.50
2017,08,04,17,09,27.50
2017,08,04,17,10,27.40
2017,08,04,17,11,27.40
2017,08,04,17,12,27.40
2017,08,04,17,13,27.40
2017,08,04,17,14,27.40
2017,08,04,17,15,27.30
2017,08,04,17,16,27.30
2017,08,04,17,17,27.30
2017,08,04,17,18,27.30
2017,08,04,17,19,27.30